| time (UTC) | temp F | wind direction | speed knots | gust knots | rain 1hr in | rain 24hr in | rain mn in | humidity % | barometer mb |
| 20260507151422 | 59 | 150 | 0.0 | 0.0 | 0.00 | 0.00 | 0.00 | 65 | 1007.9 |
| 20260507150916 | 58 | 98 | 0.0 | 0.0 | 0.00 | 0.00 | 0.00 | 65 | 1008.0 |
| 20260507150410 | 58 | 156 | 0.9 | 0.0 | 0.00 | 0.00 | 0.00 | 67 | 1008.0 |
| 20260507145904 | 58 | 30 | 0.9 | 0.0 | 0.00 | 0.00 | 0.00 | 65 | 1008.0 |
| 20260507145358 | 58 | 345 | 0.0 | 0.0 | 0.00 | 0.00 | 0.00 | 68 | 1008.1 |
| 20260507144852 | 57 | 325 | 0.0 | 0.0 | 0.00 | 0.00 | 0.00 | 73 | 1008.2 |
| 20260507144346 | 57 | 11 | 0.0 | 0.0 | 0.00 | 0.00 | 0.00 | 71 | 1008.3 |
| 20260507143840 | 57 | 12 | 0.0 | 0.0 | 0.00 | 0.00 | 0.00 | 72 | 1008.2 |
| 20260507143334 | 57 | 311 | 0.9 | 0.0 | 0.00 | 0.00 | 0.00 | 74 | 1008.3 |
| 20260507142829 | 56 | 170 | 0.0 | 0.0 | 0.00 | 0.00 | 0.00 | 77 | 1008.4 |
| 20260507142322 | 56 | 198 | 0.0 | 0.0 | 0.00 | 0.00 | 0.00 | 74 | 1008.5 |
| 20260507141817 | 56 | 273 | 0.0 | 0.0 | 0.00 | 0.00 | 0.00 | 75 | 1008.5 |
| 20260507141310 | 55 | 178 | 0.9 | 0.0 | 0.00 | 0.00 | 0.00 | 74 | 1008.5 |
| 20260507140805 | 55 | 313 | 0.0 | 0.0 | 0.00 | 0.00 | 0.00 | 78 | 1008.6 |
| 20260507140258 | 55 | 242 | 0.9 | 0.0 | 0.00 | 0.00 | 0.00 | 75 | 1008.6 |
| 20260507135752 | 54 | 3 | 0.0 | 0.0 | 0.00 | 0.00 | 0.00 | 80 | 1008.6 |
| 20260507135246 | 53 | 106 | 0.0 | 0.0 | 0.00 | 0.00 | 0.00 | 83 | 1008.6 |
| 20260507134740 | 53 | 175 | 0.0 | 0.0 | 0.00 | 0.00 | 0.00 | 85 | 1008.6 |
| 20260507134235 | 53 | 184 | 0.0 | 0.0 | 0.00 | 0.00 | 0.00 | 88 | 1008.6 |
| 20260507133729 | 53 | 209 | 0.0 | 0.0 | 0.00 | 0.00 | 0.00 | 90 | 1008.7 |
| 20260507133222 | 53 | 325 | 0.0 | 0.0 | 0.00 | 0.00 | 0.00 | 91 | 1008.7 |
| 20260507132717 | 52 | 270 | 0.0 | 0.0 | 0.00 | 0.00 | 0.00 | 92 | 1008.8 |
| 20260507132210 | 52 | 271 | 0.0 | 0.0 | 0.00 | 0.00 | 0.00 | 94 | 1008.8 |
| 20260507131705 | 52 | 272 | 0.0 | 0.0 | 0.00 | 0.00 | 0.00 | 94 | 1008.8 |
| 20260507131158 | 52 | 272 | 0.0 | 0.0 | 0.00 | 0.00 | 0.00 | 94 | 1008.8 |
| 20260507130653 | 52 | 268 | 0.0 | 0.0 | 0.00 | 0.00 | 0.00 | 95 | 1008.8 |
| 20260507130147 | 52 | 313 | 0.0 | 0.0 | 0.00 | 0.00 | 0.00 | 96 | 1009.0 |
| 20260507125640 | 52 | 332 | 0.0 | 0.0 | 0.00 | 0.00 | 0.00 | 97 | 1008.9 |
| 20260507125135 | 52 | 331 | 0.0 | 0.0 | 0.00 | 0.00 | 0.00 | 97 | 1009.0 |
| 20260507124628 | 51 | 331 | 0.0 | 0.0 | 0.00 | 0.00 | 0.00 | 97 | 1008.8 |
| 20260507124123 | 51 | 333 | 0.0 | 0.0 | 0.00 | 0.00 | 0.00 | 97 | 1008.9 |
| 20260507123616 | 51 | 237 | 0.0 | 0.0 | 0.00 | 0.00 | 0.00 | 97 | 1008.9 |
| 20260507123111 | 51 | 237 | 0.0 | 0.0 | 0.00 | 0.00 | 0.00 | 97 | 1009.0 |
| 20260507122604 | 51 | 237 | 0.0 | 0.0 | 0.00 | 0.00 | 0.00 | 97 | 1009.1 |
| 20260507122059 | 51 | 237 | 0.0 | 0.0 | 0.00 | 0.00 | 0.00 | 97 | 1009.3 |
| 20260507121553 | 51 | 237 | 0.0 | 0.0 | 0.00 | 0.00 | 0.00 | 97 | 1009.3 |
| 20260507121047 | 51 | 237 | 0.0 | 0.0 | 0.00 | 0.00 | 0.00 | 97 | 1009.2 |
| 20260507120541 | 50 | 237 | 0.0 | 0.0 | 0.00 | 0.00 | 0.00 | 97 | 1008.9 |
| 20260507120035 | 50 | 237 | 0.0 | 0.0 | 0.00 | 0.00 | 0.00 | 97 | 1008.9 |
| 20260507115529 | 50 | 237 | 0.0 | 0.0 | 0.00 | 0.00 | 0.00 | 97 | 1008.9 |
| 20260507115023 | 50 | 237 | 0.0 | 0.0 | 0.00 | 0.00 | 0.00 | 97 | 1008.9 |
| 20260507114517 | 50 | 237 | 0.0 | 0.0 | 0.00 | 0.00 | 0.00 | 97 | 1008.8 |
| 20260507114011 | 50 | 237 | 0.0 | 0.0 | 0.00 | 0.00 | 0.00 | 97 | 1008.9 |
| 20260507113505 | 50 | 237 | 0.0 | 0.0 | 0.00 | 0.00 | 0.00 | 97 | 1009.0 |
| 20260507112959 | 50 | 237 | 0.0 | 0.0 | 0.00 | 0.00 | 0.00 | 97 | 1008.9 |
| 20260507112453 | 50 | 237 | 0.0 | 0.0 | 0.00 | 0.00 | 0.00 | 97 | 1008.8 |
| 20260507111947 | 50 | 237 | 0.0 | 0.0 | 0.00 | 0.00 | 0.00 | 97 | 1008.8 |
| 20260507111441 | 50 | 237 | 0.0 | 0.0 | 0.00 | 0.00 | 0.00 | 97 | 1008.6 |
| 20260507110935 | 50 | 237 | 0.0 | 0.0 | 0.00 | 0.00 | 0.00 | 97 | 1008.7 |
| 20260507110429 | 50 | 237 | 0.0 | 0.0 | 0.00 | 0.00 | 0.00 | 97 | 1008.7 |
| 20260507105923 | 50 | 237 | 0.0 | 0.0 | 0.00 | 0.00 | 0.00 | 97 | 1008.7 |
| 20260507105417 | 49 | 237 | 0.0 | 0.0 | 0.00 | 0.00 | 0.00 | 97 | 1008.5 |
| 20260507104911 | 49 | 237 | 0.0 | 0.0 | 0.00 | 0.00 | 0.00 | 97 | 1008.4 |
| 20260507104405 | 49 | 237 | 0.0 | 0.0 | 0.00 | 0.00 | 0.00 | 97 | 1008.3 |
| 20260507103859 | 49 | 237 | 0.0 | 0.0 | 0.00 | 0.00 | 0.00 | 96 | 1008.4 |
| 20260507103353 | 49 | 237 | 0.0 | 0.0 | 0.00 | 0.00 | 0.00 | 96 | 1008.4 |
| 20260507102847 | 49 | 237 | 0.0 | 0.0 | 0.00 | 0.00 | 0.00 | 96 | 1008.6 |
| 20260507102341 | 49 | 237 | 0.0 | 0.0 | 0.00 | 0.00 | 0.00 | 96 | 1008.8 |
| 20260507101835 | 49 | 237 | 0.0 | 0.0 | 0.00 | 0.00 | 0.00 | 96 | 1008.8 |
| 20260507101329 | 49 | 237 | 0.0 | 0.0 | 0.00 | 0.00 | 0.00 | 96 | 1008.8 |
| 20260507100823 | 49 | 237 | 0.0 | 0.0 | 0.00 | 0.00 | 0.00 | 96 | 1008.4 |
| 20260507100317 | 49 | 237 | 0.0 | 0.0 | 0.00 | 0.00 | 0.00 | 96 | 1008.5 |
| 20260507095811 | 49 | 237 | 0.0 | 0.0 | 0.00 | 0.00 | 0.00 | 96 | 1008.4 |
| 20260507095306 | 49 | 237 | 0.0 | 0.0 | 0.00 | 0.00 | 0.00 | 96 | 1008.6 |
| 20260507094759 | 50 | 237 | 0.0 | 0.0 | 0.00 | 0.00 | 0.00 | 96 | 1008.5 |
| 20260507094253 | 50 | 237 | 0.0 | 0.0 | 0.00 | 0.00 | 0.00 | 96 | 1008.1 |
| 20260507093747 | 50 | 237 | 0.0 | 0.0 | 0.00 | 0.00 | 0.00 | 96 | 1007.9 |
| 20260507093241 | 50 | 237 | 0.0 | 0.0 | 0.00 | 0.00 | 0.00 | 96 | 1008.1 |
| 20260507092735 | 50 | 237 | 0.0 | 0.0 | 0.00 | 0.00 | 0.00 | 95 | 1008.3 |
| 20260507092229 | 50 | 237 | 0.0 | 0.0 | 0.00 | 0.00 | 0.00 | 95 | 1008.0 |
| 20260507091723 | 50 | 237 | 0.0 | 0.0 | 0.00 | 0.00 | 0.00 | 95 | 1008.1 |
| 20260507091217 | 50 | 237 | 0.0 | 0.0 | 0.00 | 0.00 | 0.00 | 95 | 1008.0 |
| 20260507090711 | 50 | 237 | 0.0 | 0.0 | 0.00 | 0.00 | 0.00 | 95 | 1007.8 |
| 20260507090205 | 50 | 237 | 0.0 | 0.0 | 0.00 | 0.00 | 0.00 | 95 | 1007.8 |
| 20260507085659 | 50 | 237 | 0.0 | 0.0 | 0.00 | 0.00 | 0.00 | 95 | 1007.8 |
| 20260507085153 | 50 | 237 | 0.0 | 0.0 | 0.00 | 0.00 | 0.00 | 95 | 1008.0 |
| 20260507084647 | 50 | 237 | 0.0 | 0.0 | 0.00 | 0.00 | 0.00 | 94 | 1008.0 |
| 20260507084141 | 51 | 237 | 0.0 | 0.0 | 0.00 | 0.00 | 0.00 | 94 | 1008.2 |
| 20260507083635 | 51 | 237 | 0.0 | 0.0 | 0.00 | 0.00 | 0.00 | 94 | 1008.1 |
| 20260507083129 | 51 | 236 | 0.0 | 0.0 | 0.00 | 0.00 | 0.00 | 94 | 1008.1 |
| 20260507082623 | 51 | 236 | 0.0 | 0.0 | 0.00 | 0.00 | 0.00 | 94 | 1008.1 |
| 20260507082117 | 51 | 236 | 0.0 | 0.0 | 0.00 | 0.00 | 0.00 | 94 | 1008.1 |
| 20260507081611 | 51 | 236 | 0.0 | 0.0 | 0.00 | 0.00 | 0.00 | 93 | 1007.8 |
| 20260507081105 | 52 | 236 | 0.0 | 0.0 | 0.00 | 0.00 | 0.00 | 93 | 1007.6 |
| 20260507080559 | 52 | 236 | 0.0 | 0.0 | 0.00 | 0.00 | 0.00 | 94 | 1007.8 |
| 20260507080053 | 52 | 236 | 0.0 | 0.0 | 0.00 | 0.00 | 0.00 | 94 | 1008.2 |
| 20260507075547 | 53 | 236 | 0.0 | 0.0 | 0.00 | 0.00 | 0.00 | 93 | 1008.1 |
| 20260507075041 | 53 | 236 | 0.0 | 0.0 | 0.00 | 0.00 | 0.00 | 93 | 1008.0 |
| 20260507074535 | 53 | 236 | 0.0 | 0.0 | 0.00 | 0.00 | 0.00 | 93 | 1008.0 |
| 20260507074029 | 53 | 236 | 0.0 | 0.0 | 0.00 | 0.00 | 0.00 | 94 | 1007.6 |
| 20260507073523 | 54 | 236 | 0.0 | 0.0 | 0.00 | 0.00 | 0.00 | 94 | 1007.9 |
| 20260507073017 | 54 | 236 | 0.0 | 0.0 | 0.00 | 0.00 | 0.00 | 94 | 1007.8 |
| 20260507072511 | 54 | 236 | 0.0 | 0.0 | 0.00 | 0.00 | 0.00 | 94 | 1007.4 |
| 20260507072005 | 54 | 236 | 0.0 | 0.0 | 0.00 | 0.00 | 0.00 | 94 | 1007.1 |
| 20260507071459 | 54 | 236 | 0.0 | 0.0 | 0.00 | 0.00 | 0.00 | 94 | 1006.9 |
| 20260507070953 | 54 | 236 | 0.0 | 0.0 | 0.00 | 0.00 | 0.00 | 93 | 1006.7 |
| 20260507070447 | 54 | 236 | 0.0 | 0.0 | 0.00 | 0.00 | 0.00 | 93 | 1006.5 |
| 20260507065941 | 54 | 236 | 0.0 | 0.0 | 0.00 | 0.00 | 0.00 | 94 | 1006.8 |
| 20260507065435 | 55 | 236 | 0.0 | 0.0 | 0.00 | 0.00 | 0.00 | 94 | 1006.9 |
| 20260507064929 | 55 | 236 | 0.0 | 0.0 | 0.00 | 0.00 | 0.00 | 94 | 1006.8 |
| 20260507064423 | 55 | 236 | 0.0 | 0.0 | 0.00 | 0.00 | 0.00 | 94 | 1006.7 |
| 20260507063917 | 55 | 236 | 0.0 | 0.0 | 0.00 | 0.00 | 0.00 | 94 | 1006.7 |
| 20260507063411 | 56 | 236 | 0.0 | 0.0 | 0.00 | 0.00 | 0.00 | 94 | 1006.9 |
| 20260507062905 | 56 | 236 | 0.0 | 0.0 | 0.00 | 0.00 | 0.00 | 94 | 1007.0 |
| 20260507062359 | 56 | 236 | 0.0 | 0.0 | 0.00 | 0.00 | 0.00 | 95 | 1007.0 |
| 20260507061853 | 56 | 236 | 0.0 | 0.0 | 0.00 | 0.00 | 0.00 | 95 | 1006.9 |
| 20260507061347 | 57 | 236 | 0.0 | 0.0 | 0.00 | 0.00 | 0.00 | 95 | 1006.7 |
| 20260507060841 | 57 | 236 | 0.0 | 0.0 | 0.00 | 0.00 | 0.00 | 95 | 1006.8 |
| 20260507060335 | 57 | 236 | 0.0 | 0.0 | 0.00 | 0.00 | 0.00 | 95 | 1006.9 |
| 20260507055829 | 57 | 236 | 0.0 | 0.0 | 0.00 | 0.00 | 0.00 | 96 | 1006.9 |
| 20260507055323 | 58 | 236 | 0.0 | 0.0 | 0.00 | 0.00 | 0.00 | 96 | 1007.1 |
| 20260507054817 | 58 | 236 | 0.0 | 0.0 | 0.00 | 0.00 | 0.00 | 96 | 1007.2 |
| 20260507054311 | 58 | 236 | 0.0 | 0.0 | 0.00 | 0.00 | 0.00 | 96 | 1007.1 |
| 20260507053805 | 58 | 236 | 0.0 | 0.0 | 0.00 | 0.00 | 0.00 | 96 | 1007.0 |
| 20260507053259 | 58 | 236 | 0.0 | 0.0 | 0.00 | 0.00 | 0.00 | 96 | 1007.0 |
| 20260507052753 | 58 | 236 | 0.0 | 0.0 | 0.00 | 0.00 | 0.00 | 96 | 1007.4 |
| 20260507052247 | 58 | 236 | 0.0 | 0.0 | 0.00 | 0.00 | 0.00 | 96 | 1007.2 |
| 20260507051741 | 58 | 236 | 0.0 | 0.0 | 0.00 | 0.00 | 0.00 | 96 | 1007.2 |
| 20260507051235 | 59 | 236 | 0.0 | 0.0 | 0.00 | 0.00 | 0.00 | 96 | 1007.2 |
| 20260507050729 | 59 | 236 | 0.0 | 0.0 | 0.00 | 0.00 | 0.00 | 96 | 1007.0 |
| 20260507050223 | 59 | 236 | 0.0 | 0.0 | 0.00 | 0.00 | 0.00 | 96 | 1007.0 |
| 20260507045717 | 59 | 236 | 0.0 | 0.0 | 0.00 | 0.00 | 0.00 | 96 | 1007.1 |
| 20260507045211 | 59 | 236 | 0.0 | 0.0 | 0.00 | 0.00 | 0.00 | 96 | 1007.2 |
| 20260507044705 | 59 | 236 | 0.0 | 0.0 | 0.00 | 0.00 | 0.00 | 96 | 1006.9 |
| 20260507044159 | 59 | 236 | 0.0 | 0.0 | 0.00 | 0.00 | 0.00 | 96 | 1007.0 |
| 20260507043653 | 59 | 236 | 0.0 | 0.0 | 0.00 | 0.00 | 0.00 | 96 | 1007.1 |
| 20260507043147 | 59 | 236 | 0.0 | 0.0 | 0.00 | 0.00 | 0.00 | 96 | 1007.1 |
| 20260507042641 | 60 | 236 | 0.0 | 0.0 | 0.00 | 0.00 | 0.00 | 96 | 1007.0 |
| 20260507042135 | 60 | 236 | 0.0 | 0.0 | 0.00 | 0.00 | 0.00 | 96 | 1007.0 |
| 20260507041629 | 60 | 236 | 0.0 | 0.0 | 0.00 | 0.00 | 0.00 | 96 | 1006.8 |
| 20260507041123 | 60 | 236 | 0.0 | 0.0 | 0.00 | 0.00 | 0.00 | 96 | 1006.9 |
| 20260507040617 | 60 | 236 | 0.0 | 0.0 | 0.00 | 0.00 | 0.00 | 96 | 1007.0 |
| 20260507040111 | 60 | 174 | 0.0 | 0.0 | 0.00 | 0.00 | 0.00 | 96 | 1006.9 |
| 20260507035605 | 60 | 174 | 0.0 | 0.0 | 0.00 | 0.00 | 0.00 | 96 | 1007.1 |
| 20260507035059 | 60 | 183 | 0.0 | 0.0 | 0.00 | 0.00 | 0.00 | 96 | 1007.1 |
| 20260507034553 | 60 | 222 | 0.0 | 0.0 | 0.00 | 0.00 | 0.00 | 96 | 1007.2 |
| 20260507034047 | 60 | 190 | 0.0 | 0.0 | 0.00 | 0.00 | 0.00 | 96 | 1007.2 |
| 20260507033541 | 60 | 218 | 0.0 | 0.0 | 0.00 | 0.00 | 0.00 | 96 | 1007.1 |
| 20260507033035 | 59 | 212 | 1.7 | 0.0 | 0.00 | 0.00 | 0.00 | 96 | 1007.2 |
| 20260507032529 | 59 | 250 | 0.0 | 0.0 | 0.00 | 0.00 | 0.00 | 96 | 1007.0 |
| 20260507032023 | 59 | 181 | 0.9 | 0.0 | 0.00 | 0.00 | 0.00 | 96 | 1006.9 |
| 20260507031517 | 59 | 203 | 0.0 | 0.0 | 0.00 | 0.00 | 0.00 | 96 | 1006.9 |
| 20260507031011 | 59 | 228 | 0.0 | 0.0 | 0.00 | 0.00 | 0.00 | 96 | 1006.7 |
| 20260507030505 | 59 | 208 | 0.0 | 0.0 | 0.00 | 0.00 | 0.00 | 96 | 1006.8 |
| 20260507025959 | 59 | 212 | 0.0 | 0.0 | 0.00 | 0.00 | 0.00 | 96 | 1006.8 |
| 20260507025453 | 59 | 236 | 0.0 | 0.0 | 0.00 | 0.00 | 0.00 | 96 | 1006.8 |
| 20260507024947 | 59 | 236 | 0.9 | 0.0 | 0.00 | 0.00 | 0.00 | 96 | 1006.8 |
| 20260507024441 | 59 | 28 | 0.0 | 0.0 | 0.00 | 0.00 | 0.00 | 96 | 1006.7 |
| 20260507023935 | 59 | 252 | 0.0 | 0.0 | 0.00 | 0.00 | 0.00 | 96 | 1006.6 |
| 20260507023429 | 59 | 105 | 0.0 | 0.0 | 0.00 | 0.00 | 0.00 | 96 | 1006.6 |
| 20260507022923 | 59 | 111 | 0.0 | 0.0 | 0.00 | 0.00 | 0.00 | 96 | 1006.7 |
| 20260507022417 | 59 | 218 | 0.9 | 0.0 | 0.00 | 0.00 | 0.00 | 96 | 1006.7 |
| 20260507021911 | 59 | 207 | 0.0 | 0.0 | 0.00 | 0.00 | 0.00 | 96 | 1006.7 |
| 20260507021405 | 59 | 209 | 0.0 | 0.0 | 0.00 | 0.00 | 0.00 | 96 | 1006.7 |
| 20260507020859 | 59 | 210 | 0.0 | 0.0 | 0.00 | 0.00 | 0.00 | 96 | 1006.7 |
| 20260507020353 | 59 | 210 | 0.0 | 0.0 | 0.00 | 0.00 | 0.00 | 96 | 1006.9 |
| 20260507015847 | 59 | 255 | 0.0 | 0.0 | 0.00 | 0.00 | 0.00 | 96 | 1006.9 |
| 20260507015341 | 58 | 254 | 0.0 | 0.0 | 0.00 | 0.00 | 0.00 | 96 | 1006.7 |
| 20260507014835 | 58 | 254 | 0.0 | 0.0 | 0.00 | 0.00 | 0.00 | 96 | 1006.7 |
| 20260507014329 | 58 | 255 | 0.0 | 0.0 | 0.00 | 0.00 | 0.00 | 96 | 1006.6 |
| 20260507013823 | 58 | 62 | 0.0 | 0.0 | 0.00 | 0.00 | 0.00 | 96 | 1006.8 |
| 20260507013317 | 58 | 92 | 0.0 | 0.0 | 0.00 | 0.00 | 0.00 | 96 | 1006.7 |
| 20260507012811 | 58 | 204 | 0.0 | 0.0 | 0.00 | 0.00 | 0.00 | 96 | 1006.8 |
| 20260507012306 | 58 | 204 | 0.0 | 0.0 | 0.00 | 0.00 | 0.00 | 96 | 1007.0 |
| 20260507011759 | 58 | 206 | 0.0 | 0.0 | 0.00 | 0.00 | 0.00 | 96 | 1007.1 |
| 20260507011253 | 58 | 206 | 0.0 | 0.0 | 0.00 | 0.00 | 0.00 | 96 | 1007.2 |
| 20260507010747 | 58 | 206 | 0.0 | 0.0 | 0.00 | 0.00 | 0.00 | 96 | 1007.1 |
| 20260507010241 | 58 | 214 | 0.0 | 0.0 | 0.00 | 0.00 | 0.00 | 96 | 1007.2 |
| 20260507005735 | 58 | 218 | 0.0 | 0.0 | 0.00 | 0.00 | 0.00 | 96 | 1007.2 |
| 20260507005229 | 58 | 218 | 0.0 | 0.0 | 0.00 | 0.00 | 0.00 | 96 | 1007.2 |
| 20260507004723 | 58 | 219 | 0.0 | 0.0 | 0.00 | 0.00 | 0.00 | 96 | 1007.2 |
| 20260507004217 | 58 | 204 | 0.0 | 0.0 | 0.00 | 0.00 | 0.00 | 96 | 1007.2 |
| 20260507003711 | 58 | 354 | 0.0 | 0.0 | 0.00 | 0.00 | 0.00 | 96 | 1007.2 |
| 20260507003205 | 58 | 301 | 0.0 | 0.0 | 0.00 | 0.00 | 0.00 | 95 | 1007.1 |
| 20260507002659 | 58 | 234 | 0.0 | 0.0 | 0.00 | 0.00 | 0.00 | 95 | 1007.1 |
| 20260507002153 | 58 | 274 | 0.9 | 0.0 | 0.00 | 0.00 | 0.00 | 95 | 1006.9 |
| 20260507001647 | 58 | 112 | 0.0 | 0.0 | 0.00 | 0.00 | 0.00 | 95 | 1006.9 |
| 20260507001141 | 58 | 111 | 0.0 | 0.0 | 0.00 | 0.00 | 0.00 | 95 | 1006.9 |
| 20260507000635 | 58 | 230 | 0.9 | 0.0 | 0.00 | 0.00 | 0.00 | 95 | 1006.8 |
| 20260507000129 | 58 | 231 | 0.0 | 0.0 | 0.00 | 0.00 | 0.00 | 95 | 1006.8 |
| 20260506235623 | 59 | 84 | 0.0 | 0.0 | 0.00 | 0.00 | 0.00 | 95 | 1006.8 |
| 20260506235117 | 59 | 334 | 0.0 | 0.0 | 0.00 | 0.00 | 0.00 | 95 | 1006.8 |
| 20260506234611 | 59 | 317 | 0.0 | 0.0 | 0.00 | 0.00 | 0.00 | 95 | 1006.8 |
| 20260506234105 | 59 | 242 | 0.0 | 0.0 | 0.00 | 0.00 | 0.00 | 94 | 1006.8 |
| 20260506233559 | 59 | 212 | 0.0 | 0.0 | 0.00 | 0.00 | 0.00 | 94 | 1006.6 |
| 20260506233053 | 59 | 81 | 0.0 | 0.0 | 0.00 | 0.00 | 0.00 | 94 | 1006.6 |
| 20260506232547 | 59 | 48 | 0.0 | 0.0 | 0.00 | 0.00 | 0.00 | 94 | 1006.6 |
| 20260506232041 | 59 | 93 | 0.0 | 0.0 | 0.00 | 0.00 | 0.00 | 94 | 1006.7 |
| 20260506231535 | 59 | 50 | 0.0 | 0.0 | 0.00 | 0.00 | 0.00 | 94 | 1006.7 |
| 20260506231029 | 59 | 223 | 0.9 | 0.0 | 0.00 | 0.00 | 0.00 | 93 | 1006.7 |
| 20260506230523 | 59 | 107 | 0.0 | 0.0 | 0.00 | 0.00 | 0.00 | 93 | 1006.8 |
| 20260506230017 | 60 | 94 | 0.0 | 0.0 | 0.00 | 0.00 | 0.00 | 93 | 1006.7 |
| 20260506225511 | 60 | 92 | 0.0 | 0.0 | 0.00 | 0.00 | 0.00 | 93 | 1006.8 |
| 20260506225005 | 60 | 103 | 0.0 | 0.0 | 0.00 | 0.00 | 0.00 | 94 | 1006.8 |
| 20260506224459 | 60 | 100 | 0.0 | 0.0 | 0.00 | 0.00 | 0.00 | 94 | 1006.8 |
| 20260506223953 | 60 | 100 | 0.0 | 0.0 | 0.00 | 0.00 | 0.00 | 94 | 1006.6 |
| 20260506223447 | 60 | 42 | 0.0 | 0.0 | 0.00 | 0.00 | 0.00 | 93 | 1006.7 |
| 20260506222941 | 60 | 102 | 0.0 | 0.0 | 0.00 | 0.00 | 0.00 | 93 | 1006.6 |
| 20260506222435 | 60 | 31 | 0.0 | 0.0 | 0.00 | 0.00 | 0.00 | 93 | 1006.7 |
| 20260506221929 | 60 | 110 | 0.0 | 0.0 | 0.00 | 0.00 | 0.00 | 93 | 1006.8 |
| 20260506221423 | 60 | 77 | 0.0 | 0.0 | 0.00 | 0.00 | 0.00 | 93 | 1006.9 |
| 20260506220917 | 60 | 58 | 0.0 | 0.0 | 0.00 | 0.00 | 0.00 | 93 | 1007.0 |
| 20260506220411 | 60 | 213 | 0.0 | 0.0 | 0.00 | 0.00 | 0.00 | 93 | 1007.0 |
| 20260506215905 | 60 | 292 | 0.0 | 0.0 | 0.00 | 0.00 | 0.00 | 93 | 1007.1 |
| 20260506215359 | 61 | 292 | 0.0 | 0.0 | 0.00 | 0.00 | 0.00 | 93 | 1007.1 |
| 20260506214853 | 61 | 241 | 0.0 | 0.0 | 0.00 | 0.00 | 0.00 | 93 | 1006.9 |
| 20260506214347 | 61 | 243 | 0.0 | 0.0 | 0.00 | 0.00 | 0.00 | 93 | 1006.9 |
| 20260506213841 | 61 | 117 | 0.0 | 0.0 | 0.00 | 0.00 | 0.00 | 93 | 1007.1 |
| 20260506213335 | 61 | 216 | 0.0 | 0.0 | 0.00 | 0.00 | 0.00 | 92 | 1007.2 |
| 20260506212829 | 61 | 228 | 0.9 | 0.0 | 0.00 | 0.00 | 0.00 | 92 | 1007.3 |
| 20260506212323 | 61 | 265 | 0.0 | 0.0 | 0.00 | 0.00 | 0.00 | 92 | 1007.3 |
| 20260506211817 | 61 | 304 | 0.0 | 0.0 | 0.00 | 0.00 | 0.00 | 92 | 1007.3 |
| 20260506211311 | 61 | 260 | 0.0 | 0.0 | 0.00 | 0.00 | 0.00 | 92 | 1007.4 |
| 20260506210805 | 61 | 285 | 0.0 | 0.0 | 0.00 | 0.00 | 0.00 | 91 | 1007.3 |
| 20260506210259 | 61 | 234 | 0.9 | 0.0 | 0.00 | 0.00 | 0.00 | 91 | 1007.3 |
| 20260506205753 | 61 | 227 | 0.9 | 0.0 | 0.00 | 0.00 | 0.00 | 90 | 1007.3 |
| 20260506205247 | 61 | 226 | 0.0 | 9.6 | 0.00 | 0.00 | 0.00 | 90 | 1007.4 |
| 20260506204741 | 62 | 267 | 1.7 | 9.6 | 0.00 | 0.00 | 0.00 | 89 | 1007.5 |
| 20260506204235 | 62 | 136 | 0.9 | 0.0 | 0.00 | 0.00 | 0.00 | 88 | 1007.4 |
| 20260506203729 | 62 | 214 | 2.6 | 0.0 | 0.00 | 0.00 | 0.00 | 88 | 1007.5 |
| 20260506203223 | 62 | 202 | 0.9 | 0.0 | 0.00 | 0.00 | 0.00 | 88 | 1007.5 |
| 20260506202717 | 62 | 148 | 1.7 | 0.0 | 0.00 | 0.00 | 0.00 | 88 | 1007.5 |
| 20260506202211 | 62 | 232 | 1.7 | 0.0 | 0.00 | 0.00 | 0.00 | 87 | 1007.7 |
| 20260506201705 | 62 | 211 | 0.0 | 0.0 | 0.00 | 0.00 | 0.00 | 87 | 1007.5 |
| 20260506201159 | 63 | 303 | 0.0 | 0.0 | 0.00 | 0.00 | 0.00 | 86 | 1007.6 |
| 20260506200653 | 63 | 187 | 0.0 | 0.0 | 0.00 | 0.00 | 0.00 | 86 | 1007.6 |
| 20260506200147 | 63 | 259 | 0.9 | 0.0 | 0.00 | 0.00 | 0.00 | 84 | 1007.5 |
| 20260506195641 | 64 | 242 | 0.0 | 0.0 | 0.00 | 0.00 | 0.00 | 84 | 1007.5 |
| 20260506195135 | 64 | 96 | 0.0 | 0.0 | 0.00 | 0.00 | 0.00 | 83 | 1007.5 |
| 20260506194629 | 64 | 96 | 0.0 | 0.0 | 0.00 | 0.00 | 0.00 | 83 | 1007.3 |
| 20260506194123 | 64 | 99 | 0.0 | 0.0 | 0.00 | 0.00 | 0.00 | 82 | 1007.4 |
| 20260506193617 | 65 | 106 | 0.0 | 0.0 | 0.00 | 0.00 | 0.00 | 80 | 1007.5 |
| 20260506193111 | 65 | 260 | 0.0 | 0.0 | 0.00 | 0.00 | 0.00 | 80 | 1007.7 |
| 20260506192605 | 66 | 91 | 0.0 | 0.0 | 0.00 | 0.00 | 0.00 | 78 | 1007.6 |
| 20260506192059 | 66 | 266 | 0.0 | 0.0 | 0.00 | 0.00 | 0.00 | 77 | 1007.6 |
| 20260506191553 | 67 | 285 | 0.0 | 0.0 | 0.00 | 0.00 | 0.00 | 75 | 1007.7 |
| 20260506191047 | 67 | 297 | 0.0 | 0.0 | 0.00 | 0.00 | 0.00 | 74 | 1007.7 |
| 20260506190541 | 68 | 233 | 0.0 | 0.0 | 0.00 | 0.00 | 0.00 | 73 | 1007.6 |
| 20260506190035 | 68 | 141 | 0.9 | 0.0 | 0.00 | 0.00 | 0.00 | 69 | 1007.7 |
| 20260506185530 | 68 | 304 | 0.0 | 0.0 | 0.00 | 0.00 | 0.00 | 69 | 1007.6 |
| 20260506185023 | 69 | 138 | 0.0 | 0.0 | 0.00 | 0.00 | 0.00 | 67 | 1007.5 |
| 20260506184517 | 69 | 11 | 0.0 | 0.0 | 0.00 | 0.00 | 0.00 | 66 | 1007.5 |
| 20260506184011 | 69 | 75 | 0.0 | 0.0 | 0.00 | 0.00 | 0.00 | 66 | 1007.6 |
| 20260506183505 | 69 | 94 | 0.9 | 0.0 | 0.00 | 0.00 | 0.00 | 65 | 1007.7 |
| 20260506182959 | 70 | 87 | 0.0 | 0.0 | 0.00 | 0.00 | 0.00 | 64 | 1007.7 |
| 20260506182453 | 70 | 119 | 0.9 | 0.0 | 0.00 | 0.00 | 0.00 | 63 | 1007.7 |
| 20260506181947 | 70 | 87 | 0.0 | 0.0 | 0.00 | 0.00 | 0.00 | 63 | 1007.8 |
| 20260506181441 | 70 | 162 | 1.7 | 0.0 | 0.00 | 0.00 | 0.00 | 62 | 1007.6 |
| 20260506180935 | 71 | 9 | 0.0 | 0.0 | 0.00 | 0.00 | 0.00 | 62 | 1007.7 |
| 20260506180429 | 71 | 134 | 0.0 | 11.3 | 0.00 | 0.00 | 0.00 | 61 | 1007.8 |
| 20260506175923 | 71 | 230 | 2.6 | 11.3 | 0.00 | 0.00 | 0.00 | 60 | 1007.9 |
| 20260506175417 | 72 | 271 | 0.9 | 10.4 | 0.00 | 0.00 | 0.00 | 60 | 1007.9 |
| 20260506174911 | 72 | 337 | 0.0 | 0.0 | 0.00 | 0.00 | 0.00 | 60 | 1008.0 |
| 20260506174405 | 72 | 179 | 0.9 | 0.0 | 0.00 | 0.00 | 0.00 | 57 | 1007.9 |
| 20260506173859 | 72 | 20 | 0.9 | 9.6 | 0.00 | 0.00 | 0.00 | 57 | 1008.0 |
| 20260506173353 | 72 | 141 | 1.7 | 10.4 | 0.00 | 0.00 | 0.00 | 57 | 1008.0 |
| 20260506172847 | 72 | 143 | 1.7 | 10.4 | 0.00 | 0.00 | 0.00 | 57 | 1008.1 |
| 20260506172341 | 72 | 33 | 0.9 | 9.6 | 0.00 | 0.00 | 0.00 | 58 | 1008.3 |
| 20260506171835 | 73 | 224 | 1.7 | 0.0 | 0.00 | 0.00 | 0.00 | 57 | 1008.1 |
| 20260506171329 | 73 | 152 | 0.9 | 12.2 | 0.00 | 0.00 | 0.00 | 57 | 1008.2 |
| 20260506170823 | 73 | 193 | 1.7 | 12.2 | 0.00 | 0.00 | 0.00 | 58 | 1007.9 |
| 20260506170317 | 73 | 130 | 0.0 | 0.0 | 0.00 | 0.00 | 0.00 | 58 | 1008.0 |
| 20260506165811 | 73 | 121 | 0.9 | 0.0 | 0.00 | 0.00 | 0.00 | 57 | 1008.0 |
| 20260506165306 | 73 | 75 | 0.9 | 0.0 | 0.00 | 0.00 | 0.00 | 62 | 1008.2 |
| 20260506164759 | 72 | 100 | 0.0 | 0.0 | 0.00 | 0.00 | 0.00 | 60 | 1008.2 |
| 20260506164253 | 72 | 270 | 0.9 | 0.0 | 0.00 | 0.00 | 0.00 | 60 | 1008.3 |
| 20260506163747 | 72 | 315 | 0.0 | 0.0 | 0.00 | 0.00 | 0.00 | 63 | 1008.5 |
| 20260506163241 | 72 | 213 | 0.0 | 0.0 | 0.00 | 0.00 | 0.00 | 61 | 1008.5 |
| 20260506162735 | 72 | 69 | 0.9 | 0.0 | 0.00 | 0.00 | 0.00 | 60 | 1008.6 |
| 20260506162229 | 72 | 100 | 0.9 | 0.0 | 0.00 | 0.00 | 0.00 | 59 | 1008.6 |
| 20260506161723 | 73 | 115 | 0.0 | 0.0 | 0.00 | 0.00 | 0.00 | 61 | 1008.6 |
| 20260506161217 | 72 | 91 | 0.0 | 0.0 | 0.00 | 0.00 | 0.00 | 61 | 1008.8 |
| 20260506160711 | 72 | 98 | 0.0 | 0.0 | 0.00 | 0.00 | 0.00 | 61 | 1008.9 |
| 20260506160205 | 72 | 94 | 0.9 | 0.0 | 0.00 | 0.00 | 0.00 | 61 | 1008.9 |
| 20260506155659 | 72 | 105 | 0.0 | 0.0 | 0.00 | 0.00 | 0.00 | 62 | 1008.9 |
| 20260506155153 | 72 | 31 | 0.9 | 0.0 | 0.00 | 0.00 | 0.00 | 60 | 1009.0 |
| 20260506154647 | 72 | 69 | 0.0 | 0.0 | 0.00 | 0.00 | 0.00 | 63 | 1009.1 |
| 20260506154141 | 72 | 88 | 0.0 | 0.0 | 0.00 | 0.00 | 0.00 | 61 | 1009.2 |
| 20260506153635 | 72 | 251 | 0.9 | 0.0 | 0.00 | 0.00 | 0.00 | 61 | 1009.3 |
| 20260506153129 | 72 | 67 | 0.0 | 0.0 | 0.00 | 0.00 | 0.00 | 62 | 1009.4 |
| 20260506152623 | 72 | 149 | 0.9 | 0.0 | 0.00 | 0.00 | 0.00 | 62 | 1009.5 |
| 20260506152117 | 72 | 95 | 0.9 | 0.0 | 0.00 | 0.00 | 0.00 | 62 | 1009.5 |
| 20260506151612 | 72 | 29 | 0.9 | 0.0 | 0.00 | 0.00 | 0.00 | 62 | 1009.6 |